TimeCDT,TemperatureF,Dew PointF,Humidity,Sea Level PressureIn,VisibilityMPH,Wind Direction,Wind SpeedMPH,Gust SpeedMPH,PrecipitationIn,Events,Conditions,WindDirDegrees,DateUTC
12:52 AM,48.0,42.1,80,29.77,10.0,WNW,10.4,-,N/A,,Overcast,300,2012-10-15 05:52:00
1:52 AM,48.0,41.0,77,29.78,10.0,WNW,12.7,19.6,N/A,,Overcast,300,2012-10-15 06:52:00
2:31 AM,46.4,39.2,76,29.78,10.0,WNW,11.5,-,N/A,,Overcast,300,2012-10-15 07:31:00
2:52 AM,46.9,39.9,77,29.79,10.0,WNW,11.5,17.3,N/A,,Mostly Cloudy,300,2012-10-15 07:52:00
3:48 AM,46.4,39.2,76,29.79,10.0,WNW,11.5,-,N/A,,Mostly Cloudy,290,2012-10-15 08:48:00
3:52 AM,46.0,39.0,76,29.80,10.0,WNW,9.2,-,N/A,,Mostly Cloudy,290,2012-10-15 08:52:00
4:16 AM,46.4,39.2,76,29.80,10.0,WNW,11.5,-,N/A,,Overcast,290,2012-10-15 09:16:00
4:52 AM,45.0,39.0,80,29.82,10.0,WNW,9.2,-,N/A,,Overcast,290,2012-10-15 09:52:00
5:22 AM,44.6,39.2,81,29.81,10.0,WNW,11.5,-,N/A,,Overcast,300,2012-10-15 10:22:00
5:52 AM,45.0,39.0,80,29.83,10.0,WNW,11.5,-,N/A,,Overcast,300,2012-10-15 10:52:00
6:52 AM,45.0,39.0,80,29.85,10.0,WNW,9.2,-,N/A,,Overcast,300,2012-10-15 11:52:00
7:28 AM,44.6,37.4,76,29.85,10.0,WNW,9.2,-,N/A,,Mostly Cloudy,300,2012-10-15 12:28:00
7:52 AM,44.1,37.9,79,29.87,10.0,WNW,12.7,-,N/A,,Mostly Cloudy,300,2012-10-15 12:52:00
8:52 AM,45.0,37.9,76,29.89,10.0,WNW,11.5,-,N/A,,Mostly Cloudy,300,2012-10-15 13:52:00
9:52 AM,46.0,37.0,71,29.91,10.0,NW,11.5,-,N/A,,Mostly Cloudy,310,2012-10-15 14:52:00
10:52 AM,46.9,36.0,66,29.94,10.0,NW,10.4,-,N/A,,Mostly Cloudy,320,2012-10-15 15:52:00
11:52 AM,46.9,36.0,66,29.96,10.0,NW,9.2,-,N/A,,Overcast,320,2012-10-15 16:52:00
12:45 PM,48.2,35.6,62,29.93,10.0,NNW,11.5,18.4,N/A,,Scattered Clouds,340,2012-10-15 17:45:00
12:52 PM,48.2,35.6,62,29.93,10.0,NNW,12.7,-,N/A,,Scattered Clouds,340,2012-10-15 17:52:00
1:52 PM,52.0,37.0,57,29.93,10.0,Calm,Calm,-,N/A,,Partly Cloudy,0,2012-10-15 18:52:00
2:52 PM,50.0,37.9,63,29.94,10.0,East,8.1,-,N/A,,Scattered Clouds,80,2012-10-15 19:52:00
3:52 PM,50.0,37.9,63,29.95,10.0,ENE,5.8,-,N/A,,Scattered Clouds,70,2012-10-15 20:52:00
4:52 PM,48.0,37.9,68,29.96,10.0,East,6.9,-,N/A,,Mostly Cloudy,90,2012-10-15 21:52:00
5:52 PM,45.0,37.0,74,29.95,10.0,SSE,3.5,-,N/A,,Mostly Cloudy,150,2012-10-15 22:52:00
6:52 PM,44.1,37.0,76,29.95,10.0,SSE,5.8,-,N/A,,Mostly Cloudy,160,2012-10-15 23:52:00
7:52 PM,45.0,37.0,74,29.96,10.0,South,3.5,-,N/A,,Mostly Cloudy,170,2012-10-16 00:52:00
8:52 PM,45.0,37.0,74,29.98,10.0,South,6.9,-,N/A,,Mostly Cloudy,180,2012-10-16 01:52:00
9:52 PM,44.1,37.0,76,29.98,9.0,South,4.6,-,N/A,,Scattered Clouds,190,2012-10-16 02:52:00
10:52 PM,43.0,37.9,82,29.97,10.0,SSW,5.8,-,N/A,,Partly Cloudy,200,2012-10-16 03:52:00
11:52 PM,43.0,37.9,82,29.97,10.0,South,3.5,-,N/A,,Clear,180,2012-10-16 04:52:00